Weather History for Fes-Sais, Morocco

Change the Weather History Date:

Sunday, December 9, 2012

  Actual Average Record
Temperature  
Mean Temperature 50 °F -  
Max Temperature 61 °F 59 °F 77 °F (2010)
Min Temperature 39 °F 39 °F 32 °F (1998)
Degree Days  
Heating Degree Days 15    
Moisture  
Dew Point 44 °F    
Average Humidity 81    
Maximum Humidity 93    
Minimum Humidity 55    
Precipitation  
Precipitation 0.00 in 0.11 in - ()
Sea Level Pressure  
Sea Level Pressure 30.21 in    
Wind  
Wind Speed 5 mph ()    
Max Wind Speed 9 mph    
Max Gust Speed -    
Visibility 6.1 miles    
Events      
Averages and records for this station are not official NWS values.
T = Trace of Precipitation, MM = Missing Value Source: Averaged Metar Reports

Daily Weather History Graph

Daily Weather History Graph

Search for Another Location

Airport:

Trip Planner

Search our weather history database for the weather conditions in past years. The results will help you decide how hot, cold, wet, or windy it might be!

Date:

Astronomy

Dec. 09, 2012 Rise Set
Actual Time 7:13 AM WET 5:11 PM WET
Civil Twilight 6:46 AM WET 5:38 PM WET
Nautical Twilight 6:15 AM WET 6:09 PM WET
Astronomical Twilight 5:44 AM WET 6:40 PM WET
Moon 2:39 AM WET (12/9) 2:00 PM WET (12/9)
Length of Visible Light 10h 52m
Length of Day
9h 57m
Waning Crescent, 20% of the Moon is Illuminated
Dec 9
Waning Crescent
Dec 13
New
Dec 20
First Quarter
Dec 28
Full
Jan 5
Last Quarter

Hourly Weather History & Observations

Time (WET) Temp. Windchill Dew Point Humidity Pressure Visibility Wind Dir Wind Speed Gust Speed Precip Events Conditions
12:00 AM 46 °F - 44 °F 91% 30.27 in 6 mi SE 4.6 mph - -   Mostly Cloudy
12:00 AM 46.4 °F 42.9 °F 44.6 °F 93% 30.24 in 6.2 mi SE 6.9 mph - N/A   Mostly Cloudy
1:00 AM 46.4 °F 42.9 °F 42.8 °F 87% 30.21 in 6.2 mi SE 6.9 mph - N/A   Mostly Cloudy
2:00 AM 44.6 °F 40.7 °F 42.8 °F 93% 30.21 in 6.2 mi SSE 6.9 mph - N/A   Mostly Cloudy
3:00 AM 44 °F - 41 °F 87% 30.26 in 6 mi SSE 6.9 mph - -   Mostly Cloudy
3:00 AM 42.8 °F 38.6 °F 41.0 °F 93% 30.21 in 6.2 mi SSE 6.9 mph - N/A   Mostly Cloudy
4:00 AM 42.8 °F 40.1 °F 39.2 °F 87% 30.21 in 6.2 mi SE 4.6 mph - N/A   Scattered Clouds
5:00 AM 41.0 °F 38.0 °F 39.2 °F 93% 30.18 in 6.2 mi SSE 4.6 mph - N/A   Partly Cloudy
6:00 AM 40 °F - 38 °F 88% 30.25 in 6 mi SSE 4.6 mph - -   Scattered Clouds
6:00 AM 39.2 °F 35.9 °F 37.4 °F 93% 30.18 in 6.2 mi SSE 4.6 mph - N/A   Partly Cloudy
7:00 AM 39.2 °F 35.9 °F 37.4 °F 93% 30.21 in 6.2 mi SE 4.6 mph - N/A   Partly Cloudy
8:00 AM 41.0 °F 35.2 °F 37.4 °F 87% 30.24 in 6.2 mi SE 9.2 mph - N/A   Partly Cloudy
9:00 AM 49 °F - 41 °F 65% 30.27 in 6 mi SSW 2.3 mph - -   Scattered Clouds
9:00 AM 50.0 °F - 41.0 °F 71% 30.24 in 6.2 mi SSW 2.3 mph - N/A   Scattered Clouds
10:00 AM 57.2 °F - 42.8 °F 59% 30.24 in 6.2 mi East 2.3 mph - N/A   Scattered Clouds
11:00 AM 57.2 °F - 46.4 °F 67% 30.24 in 6.2 mi NE 6.9 mph - N/A   Scattered Clouds
12:00 PM 57 °F - 48 °F 64% 30.20 in 6 mi NE 6.9 mph - -   Scattered Clouds
12:00 PM 57.2 °F - 48.2 °F 72% 30.21 in 6.2 mi NE 6.9 mph - N/A   Mostly Cloudy
1:00 PM 60.8 °F - 50.0 °F 68% 30.18 in 6.2 mi NNE 6.9 mph - N/A   Mostly Cloudy
2:00 PM 60.8 °F - 48.2 °F 63% 30.15 in 6.2 mi NE 6.9 mph - N/A   Mostly Cloudy
3:00 PM 59 °F - 47 °F 55% 30.14 in 6 mi NE 9.2 mph - -   Clear
3:00 PM 59.0 °F - 48.2 °F 67% 30.15 in - NE 9.2 mph - N/A   Clear
4:00 PM 59.0 °F - 48.2 °F 67% 30.15 in - NE 4.6 mph - N/A   Clear
5:00 PM 55.4 °F - 48.2 °F 77% 30.15 in - Calm Calm - N/A   Clear
6:00 PM 53 °F - 47 °F 75% 30.19 in 6 mi Calm Calm - -   Clear
6:00 PM 53.6 °F - 48.2 °F 82% 30.18 in - Calm Calm - N/A   Clear
7:00 PM 50.0 °F - 46.4 °F 87% 30.21 in - SSW 6.9 mph - N/A   Clear
8:00 PM 46.4 °F 42.9 °F 44.6 °F 93% 30.21 in - SSW 6.9 mph - N/A   Clear
9:00 PM 47 °F - 45 °F 90% 30.25 in 6 mi SSW 4.6 mph - -   Clear
9:00 PM 46.4 °F 44.3 °F 44.6 °F 93% 30.21 in - SSW 4.6 mph - N/A   Clear
10:00 PM 46.4 °F 44.3 °F 44.6 °F 93% 30.21 in - SW 4.6 mph - N/A   Clear
11:00 PM 46.4 °F 44.3 °F 44.6 °F 93% 30.21 in - SSW 4.6 mph - N/A   Clear